Temp
21 22 22 21 22 23 22 22 22 22 22 22 22 22 22 22 22 22 22 21 21 21 21 21 21 20 20 20 20 20 20 20 20 20 20 20 19 19 19 19 19 19 18 18 18 18 18 18 18 18 18 18 18 18 18 18 18 18 18 18 18 18 18 18 18 18 18 18 18 18 17 17 17 17 17 17 17 16 16 16 16 16 16 16 16
21 21 22 22 23 23 22 22 22 22 22 22 22 22 22 22 21 21 22 21 21 21 21 21 21 20 20 20 20 20 20 20 20 20 19 19 19 19 19 19 19 19 18 18 18 18 18 18 18 18 18 18 18 18 18 18 18 18 17 17 18 17 17 17 17 17 17 17 17 17 17 17 17 17 17 17 16 16 16 16 16 16 16 16 16
21 21 22 22 22 22 22 22 22 22 22 22 22 22 22 22 21 21 22 21 21 21 21 21 21 21 20 20 20 20 20 20 20 19 19 19 19 19 19 19 19 19 18 18 18 18 18 18 18 18 18 18 18 18 18 18 17 17 17 18 17 17 17 17 17 17 17 17 17 17 17 17 17 17 17 17 16 16 16 16 16 16 16 16 16
21 20 21 21 21 21 21 21 21 21 22 22 22 22 22 22 21 21 21 22 21 21 21 21 21 21 21 21 20 21 21 20 20 19 19 19 19 19 19 19 19 19 18 18 18 18 18 18 18 18 18 18 18 17 17 17 17 17 17 17 17 17 17 17 17 18 18 18 18 17 17 17 17 17 17 17 17 16 16 16 16 16 16 16 16
21 21 21 21 20 21 21 21 21 21 21 22 22 22 22 22 21 21 21 21 21 21 21 21 21 21 21 21 20 21 20 20 20 19 19 19 19 19 19 19 19 19 19 18 18 18 18 18 18 18 18 18 18 17 17 17 17 17 17 17 17 17 18 18 18 18 18 18 18 18 17 17 17 17 17 17 16 16 16 16 16 16 16 16 16
22 22 21 21 20 21 20 21 20 21 21 22 22 22 22 21 21 21 21 21 21 21 21 21 21 21 21 21 21 20 20 20 20 19 19 19 19 19 19 19 19 19 19 18 18 18 18 18 18 18 18 18 18 17 17 17 17 17 17 17 17 18 18 17 18 18 18 18 18 18 17 17 17 17 17 17 16 16 16 16 16 16 16 16 16
21 21 22 21 21 21 20 20 20 21 21 22 22 22 22 21 21 21 21 21 21 21 21 21 21 21 21 21 21 20 20 20 20 19 19 19 19 19 19 19 19 19 19 19 19 18 18 18 18 18 17 17 17 17 17 17 17 17 17 17 17 17 18 17 17 18 18 18 18 18 18 17 17 17 17 17 16 16 16 16 16 16 16 16 16
21 21 21 21 21 21 20 20 20 21 21 22 22 22 21 21 21 21 21 21 21 21 20 21 21 21 21 21 20 20 20 20 19 19 19 19 19 19 19 19 19 19 19 19 19 19 18 18 18 18 18 17 17 18 17 17 17 17 17 17 17 17 18 17 17 17 18 18 18 18 18 17 17 17 17 17 16 16 16 16 16 16 16 16 16
21 21 21 21 21 21 21 21 20 21 21 21 21 21 21 21 21 21 21 21 21 20 20 20 20 20 20 20 20 20 20 20 19 19 19 19 19 19 19 19 19 19 19 19 19 18 18 18 18 18 18 18 17 17 17 17 17 17 17 17 17 17 17 18 17 17 18 18 18 18 18 17 17 17 17 16 16 16 16 16 16 16 16 16 16
20 21 21 21 21 21 20 20 20 20 21 21 21 21 21 21 21 21 21 21 21 20 20 20 20 20 20 20 20 20 20 20 20 20 19 19 19 19 19 19 19 19 19 18 18 18 18 18 19 18 18 18 18 17 17 17 17 17 17 17 17 17 17 18 17 17 18 18 18 18 17 17 17 17 16 16 16 16 16 16 16 16 16 16 16
20 20 20 20 20 21 20 20 20 20 20 21 21 21 21 21 21 21 21 21 21 20 20 20 20 20 20 20 20 20 20 20 20 20 20 20 19 19 19 19 19 19 19 18 18 18 18 18 18 18 18 18 18 18 18 18 17 17 17 17 17 17 18 18 18 18 18 18 18 18 17 17 17 17 16 16 16 16 16 16 16 16 16 16 16
20 20 20 20 20 20 20 20 20 20 20 21 21 21 21 21 21 21 21 21 21 20 20 20 20 20 20 20 20 20 20 20 20 20 20 20 20 19 19 19 19 19 19 18 18 18 18 18 18 18 18 18 18 18 18 18 18 18 18 18 18 18 19 19 18 18 18 18 18 18 17 17 17 17 17 16 16 16 16 16 16 16 16 16 16
20 20 20 20 20 20 20 20 20 20 20 20 21 21 21 21 21 21 21 21 21 20 20 20 20 20 20 21 20 20 20 20 20 20 20 20 20 19 19 19 19 19 18 18 18 18 18 18 18 18 18 18 18 18 18 18 18 18 18 18 18 18 19 19 19 19 18 18 18 18 17 17 17 17 17 16 16 16 16 16 16 15 16 16 16
19 20 20 20 20 20 20 20 20 20 20 20 20 20 21 20 20 20 20 20 20 20 20 20 20 20 20 20 20 20 20 20 20 20 20 20 19 19 19 19 19 18 18 18 18 18 18 18 17 18 18 18 18 18 18 18 18 18 18 18 18 18 19 19 19 19 18 18 18 18 17 17 17 17 17 16 16 16 16 16 16 15 16 16 15
19 19 20 20 20 20 20 20 20 20 20 20 20 20 20 20 20 20 20 20 20 20 19 19 20 20 20 20 20 20 20 20 20 19 19 19 19 19 19 19 19 18 18 18 18 18 18 18 17 18 18 18 18 18 18 18 18 18 18 18 18 18 18 19 19 19 18 18 18 18 18 17 17 17 16 16 16 16 15 15 15 15 15 15 15
20 19 20 20 20 20 20 20 20 20 20 19 19 20 20 20 20 20 20 20 19 19 19 19 20 20 20 20 20 20 20 19 19 19 19 19 19 19 19 19 19 19 19 19 18 18 18 18 17 17 18 18 18 18 18 18 18 18 18 18 17 18 18 18 19 18 18 19 19 18 18 18 17 17 16 16 16 16 16 15 15 15 15 15 15
20 20 20 20 19 20 20 20 20 20 20 19 19 19 19 19 19 19 19 19 19 19 19 19 20 20 20 20 20 19 19 19 19 19 19 19 19 19 19 19 19 19 18 18 18 18 18 18 17 17 17 17 17 18 18 18 19 18 18 18 18 18 18 18 18 19 19 19 19 19 18 18 18 17 17 17 16 16 16 15 15 15 15 15 15
20 20 20 20 19 19 19 19 19 19 19 19 19 19 19 19 19 19 19 19 19 19 19 19 20 19 19 19 19 19 19 19 19 19 19 19 19 19 19 19 19 18 18 18 18 18 18 18 17 17 18 17 17 17 18 18 18 18 18 18 18 18 19 18 18 19 19 19 19 19 19 18 18 18 17 17 17 16 16 15 15 15 15 15 15
19 19 20 19 19 19 19 19 19 19 19 19 19 19 19 19 19 19 19 19 19 19 19 19 19 19 19 19 19 19 19 19 19 19 19 19 18 18 18 18 18 18 18 18 18 18 18 18 18 18 18 17 17 17 17 18 18 18 18 18 18 18 19 18 18 19 19 19 19 19 18 18 18 18 17 17 17 16 15 16 15 15 15 15 15
18 19 19 19 19 19 19 19 19 19 19 19 19 19 19 19 19 19 19 19 19 19 19 19 19 19 19 19 19 18 18 18 18 18 18 18 18 18 18 18 18 18 18 18 18 18 18 18 18 18 18 17 17 17 17 18 18 18 18 18 18 18 19 19 18 19 19 19 19 19 18 18 18 17 17 17 16 16 16 15 15 15 15 15 15
18 18 19 19 18 18 19 19 19 19 19 19 19 19 19 19 19 19 19 19 19 19 19 19 19 19 19 19 19 18 18 18 18 18 18 18 18 18 18 18 18 18 18 18 18 18 18 18 18 18 18 18 17 17 17 18 18 18 18 18 18 19 19 19 19 19 19 19 19 19 18 18 18 17 17 17 16 16 16 15 15 15 15 15 15
17 18 19 19 18 18 19 19 19 19 19 19 19 19 19 19 19 19 19 19 19 19 19 19 19 19 19 19 19 18 18 18 18 18 18 18 18 18 18 18 18 18 18 18 18 18 18 18 18 18 18 18 17 17 17 18 18 18 18 18 18 19 19 19 19 19 19 19 19 19 18 18 18 17 17 17 16 16 16 15 15 15 15 15 15
17 18 18 18 18 18 19 19 19 19 18 19 19 19 19 19 19 19 19 19 19 19 19 19 19 19 19 19 19 18 18 18 18 18 18 18 18 18 18 18 18 18 18 18 18 18 18 18 18 18 18 18 18 18 18 18 18 18 19 18 18 18 19 19 19 19 19 19 19 19 18 18 17 17 17 16 16 16 15 15 15 15 15 15 15
17 18 19 18 19 19 19 19 19 19 19 19 19 19 19 19 19 19 19 19 19 19 19 19 19 19 19 19 18 18 18 18 18 18 18 18 18 18 18 18 18 18 18 18 18 18 18 18 18 18 18 18 18 18 18 18 18 18 19 18 18 18 19 19 19 19 19 19 19 19 19 18 17 17 16 16 16 16 15 15 15 15 15 15 15
17 18 19 19 19 19 20 20 20 20 20 20 19 19 19 19 19 19 19 19 19 19 19 19 19 19 19 19 18 18 18 18 18 18 18 18 18 18 18 18 18 18 18 18 18 18 18 18 18 18 18 18 18 18 18 18 19 19 19 19 18 18 19 19 19 19 19 19 19 19 19 18 17 17 16 16 16 16 15 15 15 15 15 15 15
18 18 19 18 19 19 20 19 20 20 20 20 20 19 19 19 19 19 19 19 19 18 19 19 19 19 18 19 19 19 18 18 18 17 17 18 18 18 18 18 18 18 18 18 18 18 18 18 18 18 18 18 18 18 18 18 19 19 19 19 18 18 19 19 19 19 19 19 19 19 19 18 17 17 17 16 16 15 15 15 15 15 14 14 15
18 18 18 18 18 19 19 19 19 19 20 20 20 20 19 19 19 19 19 19 19 18 19 19 18 19 19 19 19 19 19 18 18 17 18 18 18 18 18 18 18 18 18 18 18 18 18 18 18 18 18 18 19 18 18 18 19 19 19 19 19 19 19 19 19 19 19 19 19 19 19 18 18 17 16 16 16 15 15 15 15 15 14 14 14
17 18 18 19 18 18 18 19 19 19 20 20 20 20 20 20 19 19 19 19 19 19 19 19 18 19 19 19 19 18 18 18 18 18 18 18 18 18 17 18 18 18 18 18 18 18 17 17 17 18 18 19 19 18 18 18 19 19 19 19 19 19 19 19 19 19 19 19 19 19 19 18 18 17 16 16 16 15 15 15 15 15 14 14 14
17 17 18 18 18 18 18 18 19 20 20 20 20 20 20 20 19 19 19 19 19 19 19 19 18 19 18 18 18 18 18 18 18 18 18 18 18 18 18 18 18 18 18 18 18 18 18 17 17 17 18 19 19 19 19 19 19 19 19 19 19 19 19 19 19 19 19 19 19 19 19 19 18 17 17 16 16 15 15 15 15 15 15 14 14
17 17 17 17 18 18 18 19 19 20 20 20 20 20 20 20 19 19 19 19 19 19 18 18 18 19 18 18 18 18 18 18 18 18 18 18 18 18 18 18 18 18 18 18 18 18 18 17 17 17 18 18 19 19 19 19 19 19 19 19 19 19 19 19 19 19 19 19 19 19 19 18 18 18 17 16 16 15 15 15 15 15 15 14 14
17 17 17 17 18 18 18 18 19 19 19 19 19 19 19 19 19 19 19 19 19 18 18 18 18 18 18 18 18 17 17 17 17 17 17 17 17 18 18 17 18 18 17 17 17 17 17 17 17 17 18 18 18 18 18 19 19 19 19 19 19 19 20 19 19 19 19 19 19 19 19 18 18 18 17 17 16 16 16 15 15 15 15 14 14
17 17 17 17 18 18 18 18 19 19 19 19 19 19 19 19 19 19 19 19 19 18 18 18 18 18 18 18 17 17 17 17 17 17 17 17 17 17 17 17 17 17 17 17 17 17 17 17 17 17 18 18 18 18 18 18 18 18 18 19 19 19 20 19 19 19 19 19 19 19 19 18 18 18 18 17 17 16 16 16 15 15 15 14 14
16 17 17 17 18 18 18 18 18 19 19 19 19 19 19 19 19 19 18 18 18 18 18 18 18 18 18 17 17 17 17 17 17 17 17 17 17 17 17 17 17 17 17 17 17 17 17 17 17 18 18 18 18 18 18 18 18 18 18 19 19 19 19 19 19 19 19 19 19 19 19 18 18 18 18 17 17 17 16 16 16 16 15 15 14
17 17 17 17 18 18 18 18 18 19 19 19 19 19 19 19 19 18 18 18 18 18 18 18 18 18 17 17 17 17 17 17 17 17 17 17 17 17 18 18 17 17 17 17 17 17 17 18 18 18 18 18 18 18 18 18 18 18 18 18 19 19 19 19 19 19 19 19 19 19 18 18 18 18 18 17 17 17 17 16 16 16 16 15 15
18 18 18 18 18 18 18 19 19 19 20 20 20 19 19 19 18 18 18 18 18 18 18 18 17 17 17 17 17 17 17 16 16 17 17 18 18 18 18 18 17 17 17 17 17 17 17 17 18 18 18 19 18 18 18 18 18 18 18 18 18 19 19 19 19 19 18 18 18 19 18 18 18 18 18 18 17 17 17 16 16 16 16 15 16
18 19 19 18 18 18 19 19 20 20 20 20 19 19 19 18 18 18 18 18 18 18 18 17 17 17 17 17 17 16 16 15 16 16 16 17 18 18 18 18 17 17 17 17 18 17 17 17 18 18 19 19 19 18 18 18 18 18 18 18 18 18 18 19 19 19 19 18 18 18 18 18 18 18 18 18 17 17 17 16 16 16 16 15 15
20 20 19 18 18 19 19 20 20 20 20 20 19 19 18 18 18 18 18 18 17 17 17 17 17 17 17 17 16 16 16 15 16 16 15 16 17 18 18 18 18 17 17 17 18 17 17 17 18 18 19 19 19 18 18 17 18 18 18 17 18 18 18 18 18 19 18 18 18 18 18 18 18 18 18 18 18 17 17 17 16 16 16 15 15
21 20 20 19 19 19 19 20 20 20 20 20 19 19 19 18 18 18 18 18 17 17 17 17 17 17 17 16 16 16 16 15 15 16 15 15 16 17 17 18 17 17 17 17 18 17 16 17 18 18 18 18 18 18 17 17 18 18 18 17 17 17 18 18 18 18 18 18 17 17 18 18 18 18 18 18 18 17 17 17 17 17 16 16 15
19 20 20 19 19 19 20 20 20 20 20 20 19 19 19 18 18 18 17 17 17 17 17 17 17 17 17 16 16 16 16 15 15 16 16 15 16 17 17 17 17 17 17 17 17 17 16 17 17 17 17 17 18 18 17 18 18 18 17 17 17 17 17 17 18 18 18 18 17 17 17 17 17 17 17 17 17 17 17 17 17 17 17 17 16
19 19 20 19 19 20 20 20 20 20 20 19 19 18 18 18 18 18 17 17 17 17 17 16 16 16 16 16 16 16 16 15 16 16 16 16 16 17 17 17 17 17 17 17 17 17 16 17 17 17 17 17 17 17 17 18 18 17 17 17 17 17 17 17 17 18 18 17 17 17 17 17 17 17 17 17 17 17 17 17 17 17 17 17 17
19 19 19 19 20 21 20 20 20 20 20 20 19 19 18 18 18 18 18 17 17 17 17 16 16 16 16 16 16 16 16 16 16 16 16 16 16 17 17 17 17 17 17 16 16 16 16 16 17 17 17 17 17 17 17 17 17 17 17 17 17 16 16 16 17 17 17 17 17 17 17 17 17 17 17 18 17 17 17 17 17 17 17 17 17
18 19 19 19 20 20 20 20 20 20 20 20 20 20 19 19 18 18 18 17 17 17 17 16 16 16 16 16 16 16 17 17 17 16 16 17 17 17 17 17 17 16 16 16 16 16 16 16 16 16 16 17 17 16 16 16 17 17 17 17 17 16 16 16 16 16 16 16 16 16 16 17 17 17 17 18 17 17 17 17 17 17 17 17 17
19 19 19 20 20 20 20 20 20 20 20 20 20 20 19 19 18 18 18 17 17 17 16 16 16 17 17 17 17 17 17 17 17 17 17 17 17 17 17 16 16 16 16 16 15 15 16 16 16 16 16 16 16 16 16 16 16 16 16 16 16 16 16 16 15 15 15 16 16 16 16 16 17 17 17 17 17 17 17 17 17 17 17 17 17
18 18 19 20 20 20 20 20 20 20 20 20 20 20 19 18 18 18 18 18 17 17 17 17 17 17 17 17 17 17 17 17 17 17 17 17 17 17 17 16 16 16 16 16 15 15 16 15 15 15 15 16 15 15 15 16 16 16 16 15 14 15 17 15 14 15 15 15 15 15 16 16 16 16 16 17 17 17 17 17 17 17 17 17 16
18 19 20 20 20 20 20 20 20 20 20 20 19 19 19 18 17 17 17 17 17 16 16 17 17 17 17 17 17 17 17 17 17 17 17 17 17 17 17 16 16 15 15 15 15 15 15 15 15 15 15 16 16 15 15 15 16 16 16 15 14 16 16 14 14 15 15 15 15 15 15 16 16 16 16 16 16 16 17 16 16 16 16 16 16
18 19 20 20 20 20 20 20 20 20 20 19 19 19 19 18 18 17 17 16 16 16 16 16 16 17 17 17 17 17 17 17 17 17 17 17 17 17 17 16 16 15 15 15 15 15 15 15 15 15 15 16 16 15 14 15 15 15 16 16 16 16 15 14 14 16 15 15 16 15 15 15 16 16 16 16 16 16 16 16 16 16 16 16 15
18 19 20 20 20 20 20 20 20 20 19 19 19 19 19 19 19 18 18 17 17 16 16 16 16 16 16 16 17 17 17 17 17 17 17 17 17 17 16 16 15 15 15 15 15 15 15 15 15 15 15 15 15 15 14 14 15 15 15 15 15 16 15 15 15 15 15 16 16 16 16 16 16 16 15 16 16 16 16 16 16 16 16 16 15
18 18 19 20 20 20 20 20 20 19 19 19 19 19 19 19 19 18 18 18 18 17 16 16 16 16 16 16 16 16 16 17 17 17 17 17 17 17 17 16 16 15 15 15 15 15 15 15 15 15 15 15 15 15 14 14 14 14 14 14 15 15 15 15 15 15 16 16 16 16 16 16 16 16 16 16 16 16 16 16 16 15 15 15 15
18 18 19 19 20 20 20 20 20 19 19 19 19 19 19 19 18 18 18 18 18 17 16 16 16 16 16 16 16 16 16 16 17 17 17 17 17 17 17 16 16 16 15 16 16 15 16 16 16 15 15 15 15 15 15 14 14 14 14 14 14 15 15 15 15 15 15 15 15 15 15 16 16 16 16 16 16 16 16 16 15 15 15 15 15
18 18 19 19 19 20 20 19 18 18 18 18 18 18 19 19 18 18 18 17 17 17 16 16 16 16 16 16 16 16 16 16 16 16 16 16 16 17 17 16 16 16 16 16 16 16 16 16 16 16 15 15 15 15 15 14 14 14 14 14 14 14 15 15 15 15 14 14 14 14 13 14 15 16 16 16 16 16 16 15 15 15 15 15 15
18 18 18 19 19 18 17 17 16 17 18 18 18 18 18 18 18 18 18 17 17 17 16 16 16 16 16 16 16 15 16 16 16 16 16 16 16 16 16 16 16 16 16 16 15 15 15 15 15 15 15 15 15 15 15 15 14 14 14 14 15 15 15 15 15 15 15 14 14 14 13 13 14 15 15 15 15 15 15 15 15 15 15 15 15
Height
774 776 777 778 780 781 782 782 783 784 785 785 786 786 786 786 786 786 787 787 788 789 790 791 792 794 795 796 797 798 799 800 801 802 803 804 805 806 806 807 807 808 808 808 808 808 809 809 810 810 810 811 811 812 812 812 812 812 813 814 814 815 815 815 815 816 816 816 816 816 816 817 817 817 817 818 818 818 818 818 818 818 818 819 819
775 778 778 779 780 781 782 783 784 785 786 787 787 787 788 788 788 788 788 789 789 790 791 792 793 794 795 796 798 799 800 801 801 802 803 804 805 806 807 808 808 809 809 810 810 809 810 810 811 811 811 812 812 813 813 813 813 814 814 815 815 815 816 816 816 817 817 817 817 818 818 818 818 818 819 819 819 819 819 819 819 819 819 820 820
777 781 781 781 781 782 784 785 786 787 788 788 789 789 789 789 789 789 789 790 790 792 793 793 794 795 796 797 798 799 800 801 802 803 804 805 806 807 808 809 809 810 810 811 811 811 811 811 811 811 812 812 813 813 814 814 814 815 815 816 816 816 817 817 817 817 817 818 818 819 819 819 819 820 820 820 820 820 820 820 820 820 820 821 821
780 783 785 785 785 786 787 788 788 789 790 790 790 790 790 790 790 790 790 791 792 793 794 795 795 796 797 798 799 800 801 802 803 804 805 806 807 808 809 809 810 811 811 812 812 812 812 812 812 812 813 813 814 814 815 815 815 816 816 817 817 818 818 818 818 818 818 818 819 819 819 820 820 821 821 821 821 821 821 821 821 822 822 822 822
777 782 785 788 789 790 790 790 791 791 791 791 791 791 791 791 791 791 792 792 793 794 795 796 797 797 798 799 800 801 802 803 804 805 806 807 808 809 809 810 811 812 812 813 814 813 813 813 813 813 814 814 815 815 816 816 817 817 818 818 819 819 819 819 819 819 819 819 820 820 820 821 821 822 822 823 823 823 822 822 823 823 823 823 823
769 773 778 784 788 790 791 792 793 793 793 793 793 792 792 792 792 792 793 794 794 796 797 797 798 799 800 800 802 802 804 804 805 806 807 808 808 809 810 811 812 812 813 814 815 815 814 814 814 814 814 815 816 816 817 817 818 818 819 819 820 820 820 821 820 820 820 820 821 821 821 822 822 823 823 823 823 824 824 824 824 824 825 825 825
770 771 772 777 784 787 790 792 793 794 794 795 794 794 794 794 793 794 794 795 796 796 797 798 799 800 801 802 803 804 805 805 806 807 807 808 809 810 811 812 813 814 814 815 815 815 815 815 815 815 816 816 817 817 818 818 819 819 820 820 821 821 821 821 821 821 821 822 822 822 822 822 823 823 824 824 824 825 825 825 825 825 826 826 826
775 776 775 775 780 785 788 790 792 793 795 796 796 796 795 795 795 795 795 796 797 797 799 799 800 801 802 803 804 805 806 807 807 808 809 809 810 811 812 813 813 814 815 815 816 816 816 816 816 817 817 817 818 818 819 819 819 820 820 821 822 822 822 822 822 822 822 822 822 823 823 823 824 824 825 825 825 825 825 826 826 826 826 827 827
774 778 779 779 780 784 788 789 790 792 795 797 797 798 797 796 796 796 796 797 798 798 799 800 801 802 803 804 805 806 807 808 808 809 810 810 811 812 813 814 814 815 815 816 816 817 817 817 818 818 818 818 818 819 819 820 820 821 821 822 822 822 823 823 823 823 823 823 823 824 824 824 824 825 825 825 825 826 826 827 826 827 827 828 828
774 777 780 781 780 783 788 791 791 792 794 796 798 798 798 797 797 797 797 797 798 799 800 801 802 803 804 805 805 807 807 808 809 810 810 811 812 813 814 814 815 816 816 817 817 818 818 818 819 819 819 819 820 820 820 821 821 822 822 822 822 823 823 823 823 824 824 824 824 824 825 825 825 825 825 826 826 826 827 827 827 828 828 828 829
775 778 780 782 782 782 787 791 792 793 795 796 797 798 799 798 798 797 797 798 799 800 801 802 803 803 804 805 806 807 808 809 810 811 811 812 812 813 814 815 816 816 817 818 818 818 819 819 819 820 820 820 821 821 821 822 822 822 822 823 823 823 823 823 823 824 824 825 825 825 826 826 826 826 826 826 827 827 828 828 828 828 829 829 830
777 780 781 784 784 785 787 790 792 794 796 797 798 799 799 799 799 798 798 799 800 801 802 803 804 804 805 806 807 808 809 810 811 811 812 812 813 814 814 815 816 817 818 818 819 819 820 820 820 820 821 821 821 822 822 822 822 822 823 823 823 823 823 823 823 824 825 825 826 826 826 827 827 827 827 827 827 828 829 829 829 829 830 830 830
777 780 782 785 786 788 789 790 792 794 798 799 799 800 801 800 800 799 799 800 801 802 803 804 805 806 806 807 808 809 810 811 812 812 813 813 814 814 815 816 817 818 819 819 820 820 820 820 821 821 821 822 822 822 822 822 822 823 823 823 823 823 823 823 824 825 825 826 826 827 827 827 827 828 828 828 828 829 829 830 830 830 830 830 831
777 779 782 785 788 790 792 794 793 795 798 800 801 801 802 802 801 801 801 801 802 804 804 805 806 807 807 808 809 809 811 812 812 813 814 814 815 815 815 816 817 818 819 820 820 820 821 821 821 821 822 822 822 822 822 823 823 823 823 823 823 823 823 823 824 825 826 826 827 827 828 828 828 829 829 829 829 830 830 831 831 831 831 831 831
778 781 782 785 789 792 795 796 795 796 798 800 801 802 802 803 803 802 802 803 804 805 806 807 807 808 808 809 809 810 812 813 813 814 814 815 816 816 816 817 817 819 820 820 821 821 821 821 822 822 822 822 822 823 823 823 823 824 824 824 824 823 824 824 825 826 826 827 827 828 828 828 829 829 830 829 830 830 831 831 831 832 832 832 832
780 784 786 787 790 793 796 797 796 797 798 801 802 802 803 804 803 803 803 804 805 806 807 808 809 809 810 810 810 811 813 814 814 814 815 815 816 817 817 818 818 819 820 821 821 821 821 821 822 822 823 823 823 823 823 824 824 824 824 824 824 824 825 825 826 826 827 828 828 828 828 829 829 830 830 830 830 831 832 832 832 832 832 832 832
780 783 786 788 790 793 795 796 796 797 799 801 802 803 804 804 804 804 804 805 806 807 808 809 810 811 811 811 811 812 813 815 815 815 816 816 817 818 818 819 819 820 820 821 821 822 822 822 822 823 823 824 824 824 824 825 825 825 825 825 825 825 825 826 826 827 828 828 828 829 829 829 830 830 831 831 831 831 832 832 833 833 833 833 833
782 784 784 786 790 793 795 796 797 798 800 802 803 804 804 805 804 804 805 805 806 808 809 810 811 812 812 812 812 813 815 815 816 816 817 817 818 819 819 820 820 820 821 822 822 822 822 822 823 823 824 824 824 824 824 825 825 825 826 826 826 825 825 826 827 828 828 829 829 829 830 830 830 831 831 831 831 831 833 833 833 833 834 834 834
784 785 785 786 788 792 794 794 796 798 800 801 803 804 804 804 804 805 805 806 807 808 809 811 812 812 812 812 813 814 815 816 817 817 818 818 819 820 820 820 821 821 821 822 822 823 823 823 823 824 825 825 825 825 825 825 826 826 826 826 826 826 826 827 828 828 829 829 829 830 830 831 831 831 832 832 832 832 833 834 834 834 835 835 835
785 786 787 787 788 791 792 794 795 796 798 800 802 803 804 803 804 805 805 806 807 808 810 811 812 812 812 813 814 815 816 817 818 818 819 819 820 820 821 821 822 822 822 822 823 823 823 823 824 825 825 826 826 826 826 826 826 826 827 827 826 827 827 827 828 829 829 830 830 831 831 831 832 832 832 833 833 833 833 834 835 835 836 836 836
785 785 786 787 789 791 792 794 794 795 797 798 801 802 804 804 804 805 805 806 807 809 810 811 812 812 813 813 814 815 816 817 818 819 819 820 820 821 822 822 823 823 823 823 823 823 823 824 824 825 826 826 827 827 827 827 827 827 827 827 827 827 828 828 829 829 830 831 831 831 832 832 832 832 833 833 833 834 834 834 835 836 837 837 837
783 784 785 787 788 790 792 795 795 796 797 798 800 801 803 804 804 805 805 807 808 809 810 811 812 812 813 814 815 816 817 818 819 819 819 820 821 821 822 823 823 823 823 823 824 824 824 824 824 825 826 827 827 827 827 827 827 827 828 828 827 827 828 829 829 830 831 831 832 832 832 833 833 833 833 833 834 834 834 835 835 836 837 838 838
781 782 783 786 788 789 791 793 795 797 799 799 799 800 802 803 804 804 805 807 808 809 810 811 812 813 814 814 815 816 817 819 819 819 820 820 821 822 823 823 823 824 824 824 824 824 824 824 824 825 826 827 827 827 827 827 828 828 828 828 828 828 829 829 830 830 831 832 832 832 833 833 833 834 834 834 834 834 835 836 836 837 837 838 838
780 781 782 785 788 789 790 792 794 796 797 798 798 799 801 802 803 804 806 807 808 809 810 811 812 813 814 815 816 817 818 819 819 820 820 821 821 822 823 823 824 824 824 824 824 824 824 825 825 825 825 826 827 827 827 827 828 828 828 829 828 829 829 830 830 831 832 832 832 832 833 833 833 834 834 834 834 835 835 836 837 837 838 838 839
780 781 782 784 786 788 789 791 792 794 795 796 797 799 800 802 804 805 806 807 808 809 811 812 813 814 815 816 817 818 818 819 819 820 821 821 822 823 823 824 824 824 824 824 824 824 824 825 825 825 825 826 827 827 827 827 828 829 829 829 829 829 830 830 831 832 832 832 833 833 833 833 833 834 835 835 835 835 836 836 837 837 838 838 839
780 780 781 783 785 787 788 790 792 793 794 795 797 799 800 802 804 805 806 807 809 810 811 812 813 814 815 816 817 818 819 819 820 820 821 821 822 823 823 824 824 824 824 824 824 824 824 824 825 825 826 826 827 827 827 828 828 829 829 829 830 830 831 831 831 832 832 833 833 833 833 833 834 834 835 835 835 836 836 837 837 838 838 838 839
778 780 781 783 784 786 788 790 792 793 794 796 797 799 800 802 803 804 806 807 809 810 811 812 813 814 815 816 817 818 819 819 820 820 821 821 822 823 823 824 824 824 824 824 824 824 824 825 825 825 826 826 827 827 828 828 828 829 829 830 830 831 831 831 831 832 832 833 833 833 833 833 834 834 835 835 835 836 837 837 838 838 838 839 840
778 780 781 782 783 786 788 790 792 793 794 796 797 799 800 802 803 804 805 807 809 810 811 812 813 814 815 816 817 818 819 819 820 820 821 821 822 822 823 823 824 824 824 824 824 824 825 825 825 825 826 826 827 827 828 828 829 829 830 830 830 831 831 832 832 832 833 833 833 833 833 834 834 834 835 835 836 836 837 838 838 838 839 839 840
778 779 780 781 783 786 788 790 792 793 795 796 797 799 800 802 803 804 805 807 808 810 811 812 813 814 814 815 817 818 819 819 820 820 821 822 822 822 823 823 824 824 824 824 824 824 825 825 825 825 826 826 827 828 828 828 829 829 830 830 830 831 831 832 832 832 833 833 833 833 834 834 834 835 835 836 836 837 837 837 838 839 839 840 841
778 779 781 783 785 788 789 790 792 793 795 796 797 799 800 802 803 804 806 807 808 809 810 811 812 813 814 815 816 817 818 819 820 820 821 822 822 822 823 823 823 824 823 824 824 825 825 826 826 826 826 827 828 828 829 829 829 829 829 830 830 831 832 832 832 833 833 834 834 834 834 835 835 835 836 836 837 837 837 837 838 839 839 839 840
779 780 782 784 787 788 789 791 792 794 795 796 797 798 800 801 803 805 806 807 808 809 809 810 811 812 813 814 815 817 817 818 819 820 821 821 822 823 823 823 823 823 824 824 825 826 826 826 826 826 827 828 828 829 829 829 829 830 830 830 831 831 832 832 833 833 834 834 834 835 835 835 836 836 836 837 837 837 838 838 838 838 839 839 840
780 782 783 786 788 789 790 791 792 793 795 796 797 798 799 801 802 804 805 806 807 808 808 809 810 811 812 813 815 816 817 817 818 819 820 821 822 823 823 823 823 824 825 825 826 826 826 826 826 827 827 828 829 829 830 830 830 830 830 830 831 831 832 832 833 833 834 835 835 835 835 836 836 837 837 838 838 838 838 838 838 838 838 839 840
782 784 786 788 789 790 791 792 792 793 794 796 797 798 799 800 801 803 804 806 806 807 807 808 809 810 811 813 814 815 815 816 817 818 819 821 822 822 822 822 824 825 825 826 826 826 826 826 827 827 827 828 829 830 830 830 830 830 831 831 831 831 832 832 833 834 834 835 835 836 836 836 837 837 838 838 839 838 839 839 838 838 839 839 839
784 786 788 789 789 790 791 792 792 793 794 795 796 797 798 799 801 802 804 805 806 806 807 808 808 809 810 811 813 813 814 815 816 817 818 820 821 821 822 822 824 825 826 826 827 827 827 827 827 827 827 827 828 829 830 830 831 831 831 831 831 831 831 832 833 834 835 835 836 836 836 837 837 838 838 839 839 839 839 839 839 839 839 839 839
785 787 789 790 790 790 791 791 792 793 794 795 796 797 798 799 801 802 803 805 806 806 807 808 808 808 809 810 811 812 813 814 816 817 818 819 820 821 821 822 824 825 826 827 827 827 827 827 827 827 827 827 828 829 830 830 831 832 832 832 832 831 831 832 833 833 834 835 835 836 836 837 837 838 838 839 839 840 840 840 840 840 840 840 840
786 787 790 792 790 790 791 791 791 792 793 795 796 797 798 799 801 802 804 805 806 807 807 808 808 809 809 810 811 812 813 815 816 818 820 820 820 820 821 823 824 825 826 827 827 828 828 828 828 828 828 827 828 829 829 830 831 832 832 832 832 832 832 832 833 833 834 834 835 835 836 836 837 837 838 838 839 839 840 840 840 841 841 841 841
786 786 788 791 791 790 791 791 791 792 793 795 796 798 799 800 801 802 804 805 805 806 807 808 808 809 809 810 812 813 814 815 816 818 821 822 821 820 821 823 824 825 826 827 827 828 828 829 828 828 828 828 828 828 829 830 831 831 832 832 832 832 832 832 832 833 833 834 834 834 835 836 836 837 837 838 839 839 840 840 840 841 841 841 841
783 784 787 789 790 790 790 791 792 793 794 796 797 798 799 800 801 802 804 805 806 807 808 808 808 809 810 811 812 812 813 814 815 817 820 823 822 821 822 823 824 825 826 826 827 827 828 829 829 828 829 829 828 829 829 830 831 831 832 832 833 832 832 832 832 833 833 833 834 834 835 836 836 837 837 837 838 839 839 840 840 840 840 841 841
783 785 787 789 789 790 790 791 792 794 795 797 798 798 799 800 801 803 804 806 806 807 808 808 809 810 811 812 812 812 812 814 816 817 820 823 822 821 822 822 823 824 825 826 827 827 828 829 829 829 829 829 829 829 830 830 830 831 832 832 832 832 832 832 832 832 833 833 833 834 834 835 836 837 837 837 838 838 839 840 840 840 840 840 840
784 786 787 788 789 789 789 791 792 794 796 797 797 798 799 800 802 803 805 806 807 808 808 809 809 810 811 812 812 813 813 815 816 818 821 822 821 820 821 822 823 824 825 826 826 827 828 828 828 828 828 829 829 830 830 830 830 831 832 832 832 833 832 832 832 832 833 833 833 834 834 834 836 837 837 836 837 837 838 839 839 839 840 840 840
784 785 786 787 788 788 789 791 792 795 796 796 797 797 798 800 802 804 806 807 808 808 809 809 810 811 812 813 813 813 814 815 816 818 820 820 819 819 820 821 822 823 824 825 826 827 827 828 828 828 828 828 829 829 830 830 830 831 832 832 832 832 832 832 832 832 832 833 833 834 834 834 836 838 837 836 836 836 837 837 838 838 838 839 839
782 784 785 786 787 788 788 790 793 795 796 796 797 797 799 801 803 805 807 808 809 810 810 811 811 812 813 813 814 814 815 815 816 817 818 818 818 818 819 820 821 823 824 825 825 826 827 827 827 827 827 827 827 828 829 829 829 830 831 831 832 832 832 832 832 832 832 832 833 833 834 834 835 836 836 836 836 836 836 836 837 837 837 837 838
782 783 784 785 786 788 789 791 793 795 796 796 797 798 801 803 805 807 808 809 810 811 812 812 813 814 814 815 815 815 815 815 816 816 817 817 817 817 818 820 821 822 823 824 825 825 826 826 826 826 826 825 826 827 828 828 828 829 830 831 832 833 833 833 833 833 833 833 833 833 833 834 834 835 835 835 835 836 836 836 836 836 836 836 836
782 782 783 784 786 788 789 791 793 795 796 797 798 800 802 804 806 808 809 810 811 812 813 814 814 815 815 816 816 816 816 815 815 815 816 816 817 818 819 820 821 822 823 824 825 825 825 826 826 826 825 825 826 827 828 828 828 829 830 832 834 834 834 834 834 834 834 834 833 833 833 834 834 834 834 835 835 836 836 836 836 836 836 836 835
781 781 782 783 785 788 789 791 793 794 796 797 799 801 803 805 807 808 810 811 812 813 814 814 815 815 816 816 816 816 816 816 816 815 816 817 817 818 819 820 821 822 823 824 825 825 825 825 826 826 825 825 826 827 827 828 828 829 830 832 834 834 835 835 835 835 835 835 835 834 834 834 834 834 834 835 835 835 836 836 836 836 835 835 835
780 780 782 783 785 788 789 791 793 794 796 798 800 802 804 805 806 807 809 810 812 813 814 815 816 816 816 816 816 816 816 816 816 816 817 817 818 819 819 820 821 822 823 824 825 825 825 825 825 825 825 825 825 826 827 828 829 829 830 831 832 833 833 834 836 836 835 835 835 835 835 835 835 835 835 835 835 836 836 836 836 835 835 835 834
780 781 782 784 785 787 789 790 792 794 797 799 801 803 805 806 807 807 808 809 811 813 814 816 816 816 816 816 816 816 817 817 817 818 818 818 818 818 819 820 821 822 824 825 825 825 825 825 825 825 825 825 825 825 826 827 828 829 830 831 831 831 832 833 835 836 836 835 835 835 835 835 835 835 835 836 836 836 836 836 836 836 835 834 833
780 781 782 784 785 787 788 790 792 795 797 800 802 804 805 807 808 809 809 810 811 812 814 815 816 817 817 817 817 817 817 818 818 818 818 819 819 819 819 820 821 823 825 826 826 826 825 825 825 825 825 825 825 825 826 827 828 829 830 831 831 832 832 833 833 834 836 836 836 835 835 835 835 835 836 836 836 835 835 836 836 836 835 834 833
780 781 782 784 786 788 789 791 793 796 799 801 803 805 807 808 809 810 810 810 811 812 813 815 816 817 817 817 817 817 818 818 819 819 819 819 819 819 819 820 822 823 825 826 826 826 826 825 825 825 824 824 825 826 826 827 828 829 830 831 832 832 832 833 833 834 835 836 837 837 836 836 836 836 836 836 835 835 835 835 836 835 835 834 833
779 781 782 784 786 789 790 792 796 798 801 803 804 806 807 808 809 810 810 810 812 813 813 814 816 816 817 817 817 818 818 819 819 819 820 820 820 819 819 820 821 823 824 825 825 826 826 826 825 825 825 825 826 826 827 828 828 829 830 831 832 832 833 833 834 834 835 835 837 837 837 837 837 838 837 837 836 835 835 835 835 835 835 834 833
779 781 782 784 787 790 791 793 797 799 801 802 803 804 805 806 808 809 809 810 811 812 813 814 815 816 816 817 817 818 818 819 819 820 821 822 821 820 819 820 821 822 823 824 824 825 825 826 826 826 827 827 827 827 828 828 829 830 831 832 833 833 834 834 835 835 835 836 837 837 838 838 838 838 839 838 837 837 836 836 836 836 835 835 834
Wind_Speed
21 22 20 20 19 22 24 25 24 23 22 21 21 21 23 25 26 27 28 29 29 29 29 30 29 28 28 28 27 27 26 25 24 23 22 20 19 18 17 17 18 18 18 18 18 18 18 16 16 15 15 14 14 15 15 17 20 21 22 21 20 20 19 17 18 19 18 19 18 17 16 16 16 17 17 17 17 17 17 17 18 18 18 17 17
22 21 21 20 19 22 24 25 24 23 22 22 21 21 23 24 25 26 27 27 27 27 28 28 28 28 27 27 26 26 25 23 23 22 21 20 19 18 17 16 17 18 18 17 17 17 17 16 16 16 15 15 15 15 15 16 19 21 21 20 20 19 18 18 20 19 17 18 17 16 17 17 17 17 17 16 16 16 16 16 18 18 16 16 17
21 18 19 19 19 21 24 24 24 23 22 22 21 21 22 23 24 25 26 26 26 26 26 27 27 27 26 26 25 24 23 23 22 21 20 19 18 17 17 16 17 17 17 16 16 16 16 15 15 15 15 15 15 15 16 17 19 20 20 20 20 19 18 18 19 18 17 18 17 16 17 17 16 16 16 16 16 15 15 15 17 16 15 16 17
20 15 15 15 15 18 22 22 22 22 22 22 21 21 21 21 23 24 25 25 25 24 24 25 25 25 24 24 23 22 22 22 21 20 19 18 17 16 16 16 16 16 16 16 15 15 15 14 14 14 15 15 15 16 16 17 20 19 20 20 19 19 18 18 18 18 17 17 17 16 16 17 17 16 16 16 16 15 16 16 16 16 16 16 16
24 17 15 14 13 16 19 20 21 21 22 22 21 21 21 21 21 22 23 23 23 22 22 22 23 23 22 22 21 21 20 20 20 18 17 17 17 16 16 16 16 17 17 16 15 14 14 13 13 14 14 15 15 16 17 18 20 19 19 19 19 20 19 18 18 17 17 16 16 17 17 18 17 15 15 15 15 15 16 16 16 15 15 15 15
31 26 21 17 14 16 18 19 19 20 21 21 21 21 21 20 20 21 22 22 22 21 21 21 21 20 20 20 20 19 19 19 18 17 17 16 16 15 16 16 16 16 16 15 14 14 14 13 13 14 14 15 15 16 17 19 19 19 19 18 19 20 18 17 16 15 15 16 16 17 18 16 16 16 15 13 13 14 14 15 16 15 15 15 14
30 28 26 23 19 18 18 19 18 20 21 21 21 21 21 20 20 20 20 21 20 20 20 20 19 19 19 19 19 19 18 18 17 17 16 16 16 15 15 16 16 16 14 13 13 13 13 12 13 14 14 15 15 16 17 18 19 18 19 17 17 17 15 14 13 13 13 15 16 16 17 16 17 17 14 12 13 14 14 14 15 15 15 15 14
27 23 24 25 22 21 20 20 20 20 21 21 21 20 21 20 20 20 20 20 19 19 19 19 19 19 19 18 18 17 17 17 17 16 16 16 16 15 15 14 14 14 13 11 11 12 12 11 12 13 13 15 16 16 17 17 18 18 18 17 16 14 12 12 11 11 10 12 14 15 16 16 16 15 13 13 14 13 14 14 14 14 14 14 14
27 22 22 23 23 22 20 20 21 21 21 21 21 20 21 20 20 20 19 19 18 18 18 18 18 18 18 18 17 16 16 16 16 16 16 16 16 15 15 14 14 14 12 11 11 11 12 11 10 10 11 13 15 16 16 16 16 16 15 15 15 14 11 10 10 9 9 10 12 13 14 14 14 14 13 13 13 12 13 14 14 14 13 13 13
27 24 22 22 24 22 19 19 20 21 21 21 22 21 21 21 20 20 19 18 17 17 17 17 17 17 17 17 16 15 15 14 14 14 15 15 15 15 15 15 14 14 13 11 11 11 11 10 10 9 9 12 14 14 14 13 13 13 12 12 12 11 9 9 9 9 10 9 10 11 13 13 13 12 11 12 12 12 13 14 14 13 13 13 13
24 23 22 21 23 23 21 20 20 20 20 22 23 21 21 21 20 20 19 18 17 16 17 16 16 16 15 16 15 15 14 13 13 13 13 13 13 14 14 14 13 12 12 12 11 11 10 8 8 8 9 10 12 12 11 11 11 11 10 10 9 7 7 8 10 11 11 9 9 11 12 12 11 11 10 11 13 13 13 14 14 13 14 13 14
22 22 21 20 20 21 21 20 20 19 19 21 23 22 21 20 20 20 19 17 16 15 16 16 15 15 15 15 14 15 14 14 13 13 12 12 13 13 14 13 12 11 11 10 9 9 7 5 5 7 8 9 11 10 9 9 9 10 9 8 7 6 6 8 11 12 12 10 9 10 12 11 10 10 10 11 13 14 13 13 13 14 14 13 13
24 22 20 20 19 19 19 19 20 19 19 20 21 22 21 20 20 19 18 17 15 14 15 15 15 14 14 15 15 15 14 14 13 13 12 12 13 13 14 13 12 11 10 9 7 6 4 3 4 6 7 9 10 10 9 9 9 9 8 8 8 7 7 8 12 13 13 11 9 10 11 10 9 9 9 12 14 13 13 13 13 14 13 12 12
25 23 21 19 17 17 15 16 18 18 18 19 20 21 21 20 19 19 18 16 15 14 14 15 14 14 14 15 15 15 14 14 13 13 12 11 12 12 13 12 12 11 9 8 6 5 3 3 5 6 7 8 9 10 9 9 9 8 8 8 8 8 8 11 14 14 14 11 10 10 10 8 8 8 9 11 13 13 12 12 13 13 13 12 11
25 22 20 19 17 14 13 14 16 17 17 18 19 20 21 20 19 18 17 16 15 14 14 14 14 14 15 16 16 15 14 13 13 12 12 11 11 11 11 11 11 10 9 8 6 4 4 6 7 7 8 8 8 9 9 9 9 8 8 8 9 10 11 13 15 15 13 11 10 10 9 7 7 8 9 11 13 13 12 12 12 13 12 12 12
26 21 20 20 17 14 13 14 15 17 17 18 19 19 20 19 19 18 16 16 15 14 14 14 14 14 15 15 15 15 14 13 12 12 12 11 10 10 9 9 10 10 10 9 7 6 6 7 8 8 8 7 7 7 8 8 8 8 8 8 8 11 13 14 15 14 13 11 10 9 8 7 7 9 10 11 12 13 11 11 12 12 11 11 11
28 26 24 22 18 17 16 16 16 16 17 17 18 19 20 19 19 18 16 15 15 15 14 14 14 14 14 13 13 13 13 12 12 12 11 11 10 9 9 9 9 10 10 9 8 7 7 7 8 8 8 7 7 6 7 8 7 8 8 7 7 10 14 15 14 13 12 10 9 8 7 6 6 7 8 9 10 12 11 11 11 11 11 11 10
27 27 27 23 19 19 17 16 16 17 17 17 18 19 20 20 19 17 16 15 15 15 14 14 14 14 13 12 12 11 11 10 10 10 11 10 10 9 9 8 9 10 10 9 8 7 7 7 8 8 7 6 6 6 7 8 8 7 7 7 7 8 14 16 14 12 10 9 8 8 7 6 5 5 6 7 8 11 12 10 10 10 11 11 9
25 25 25 24 23 21 19 18 18 19 19 18 19 20 20 20 19 17 16 16 16 15 14 14 14 13 12 11 11 10 10 9 9 9 9 10 9 9 8 8 8 9 9 8 7 7 7 6 7 7 6 5 5 6 7 8 8 7 6 6 6 6 12 15 14 12 10 9 8 7 6 5 4 5 5 6 7 11 12 10 9 9 10 10 9
24 23 24 24 24 22 22 21 21 21 21 20 20 20 20 20 19 17 17 16 16 15 15 14 13 11 10 10 9 9 9 8 8 8 8 9 9 8 8 8 8 8 8 7 7 6 6 6 6 6 6 4 4 5 6 8 8 7 6 5 5 6 11 15 14 12 9 8 8 7 5 4 4 5 5 6 8 10 11 11 10 9 9 9 8
23 24 23 23 23 22 22 21 21 22 22 22 21 20 19 18 18 17 16 16 15 15 14 13 12 11 10 10 9 9 9 8 8 8 8 8 8 8 7 7 7 7 7 6 6 6 6 6 5 5 5 4 4 4 6 8 8 7 6 5 4 6 12 14 14 12 10 9 7 6 5 4 3 4 5 6 8 8 10 11 11 10 8 8 8
24 25 23 22 22 22 21 19 20 21 22 22 21 20 18 18 18 17 17 16 15 14 14 13 12 11 11 10 9 9 9 8 8 7 7 7 7 7 6 7 6 6 6 6 5 5 6 6 5 4 4 3 3 3 4 7 7 6 6 5 5 6 12 14 13 12 10 8 6 5 5 4 3 4 5 6 8 8 9 10 10 9 8 7 7
23 27 26 23 23 23 21 21 21 21 22 22 21 21 20 19 19 18 17 16 15 14 13 13 12 12 11 10 10 9 9 9 7 7 6 6 6 6 6 6 6 5 5 5 4 4 5 6 5 4 3 3 2 2 3 6 7 6 6 6 6 7 12 14 13 12 10 8 5 5 4 4 4 4 5 7 8 8 9 9 9 9 8 7 6
24 28 29 25 24 24 23 23 23 23 23 22 22 22 20 20 19 18 17 16 15 14 13 12 12 11 11 10 9 9 9 9 7 6 6 6 6 6 6 6 5 5 4 4 3 4 5 6 6 5 4 3 3 2 3 6 7 6 6 6 6 6 10 12 11 11 10 7 5 4 3 4 5 5 6 8 8 8 9 9 8 9 9 8 7
26 28 30 28 27 27 26 25 24 24 24 23 23 21 20 19 18 17 16 15 14 13 13 11 11 11 10 10 9 9 9 9 8 7 7 7 7 7 6 6 6 5 4 3 3 4 5 6 6 5 4 3 3 2 3 6 7 6 6 6 6 5 7 10 10 9 8 6 5 4 3 3 5 5 6 8 9 8 9 9 8 9 8 9 8
27 29 30 29 29 28 26 26 25 24 23 22 21 20 19 19 17 16 15 14 13 12 12 11 10 11 10 10 10 10 9 9 9 8 7 7 6 7 6 6 5 4 3 3 3 3 4 5 5 4 4 3 3 3 3 5 6 6 6 5 5 5 6 8 9 9 8 6 5 4 3 3 4 5 5 7 8 9 9 8 8 8 8 8 8
29 28 28 29 29 28 26 26 25 24 22 20 19 19 18 18 16 15 15 14 13 12 12 11 11 11 10 10 10 10 10 10 9 8 8 7 6 6 6 5 5 4 4 3 4 3 4 4 4 4 4 5 4 3 2 3 5 6 4 3 4 3 5 8 9 9 9 7 5 4 3 4 4 5 5 4 6 9 9 8 8 7 7 8 8
29 27 29 31 29 27 26 25 24 23 21 19 18 18 17 16 15 15 14 14 13 13 12 12 11 12 11 11 11 11 11 10 9 9 7 7 7 7 6 6 6 6 5 5 5 5 4 4 4 5 5 7 6 4 2 3 4 4 3 2 2 3 4 7 8 9 9 7 5 5 4 4 4 4 5 4 5 8 9 9 8 7 6 6 7
28 28 30 31 28 24 24 24 23 22 20 19 18 17 16 16 15 15 14 14 14 13 13 13 12 12 12 12 12 12 11 10 9 9 8 8 8 8 7 6 7 7 7 6 7 6 5 4 4 4 6 8 8 5 3 4 4 3 3 2 0 3 5 7 9 10 10 7 5 5 4 4 3 4 5 4 4 7 8 9 9 8 7 7 6
28 27 27 27 25 22 23 23 22 21 20 19 18 17 16 16 16 15 15 14 14 14 14 14 13 13 13 13 13 13 12 11 10 10 10 9 9 9 8 7 7 8 8 7 7 6 5 4 4 4 5 8 9 6 4 4 4 2 2 0 1 2 4 6 9 11 10 8 6 5 5 4 3 3 4 4 5 7 6 6 9 9 8 8 7
25 24 26 25 23 22 23 23 22 20 19 18 17 16 15 16 16 16 15 15 14 14 14 14 14 14 14 14 14 14 14 12 11 10 10 10 10 9 9 9 9 9 9 8 8 7 7 6 6 5 5 6 8 6 5 4 3 2 3 3 3 2 4 6 9 11 11 8 6 5 5 5 4 3 4 4 5 7 6 5 7 8 9 9 8
20 22 24 22 21 21 22 23 21 19 19 18 16 15 14 15 16 16 16 15 15 14 15 15 15 15 15 15 14 14 15 14 12 11 10 10 10 10 10 11 12 11 11 11 10 10 9 8 8 8 7 7 7 6 5 5 4 5 5 4 4 3 5 7 9 11 11 8 7 6 6 5 5 4 4 4 4 7 7 5 5 5 6 8 9
17 19 19 20 19 19 21 22 20 18 17 16 15 14 14 15 15 15 15 15 15 14 14 15 15 15 16 16 15 16 16 14 12 11 10 10 10 10 11 12 12 12 12 12 11 11 11 11 10 8 8 8 8 7 6 6 5 5 3 2 3 3 5 7 9 11 11 9 8 8 7 7 6 6 5 4 4 6 6 6 5 4 3 6 8
13 16 16 18 19 18 20 21 19 17 16 14 13 14 14 15 15 15 15 15 15 14 14 14 14 15 16 16 16 16 15 14 12 10 10 10 9 11 12 12 11 11 11 11 10 9 10 11 10 8 7 7 8 8 7 6 4 3 3 3 3 3 5 7 9 11 11 10 9 8 8 7 7 7 6 6 5 5 5 6 6 5 3 3 5
14 16 15 16 19 19 19 19 17 15 14 13 13 13 14 15 15 15 15 15 14 14 14 14 14 14 15 15 15 15 15 13 11 10 10 10 10 12 12 11 10 10 9 10 9 8 8 10 10 8 7 7 8 8 8 6 6 6 6 6 5 6 6 6 7 10 12 11 11 10 9 8 7 7 7 7 7 6 6 6 7 6 5 4 3
15 17 16 16 18 19 20 18 16 14 13 13 12 13 14 14 14 14 13 13 13 14 14 13 14 14 14 14 13 13 11 10 10 9 9 11 12 13 12 11 10 9 8 9 9 8 7 8 9 9 8 8 8 8 7 7 9 8 7 7 7 7 7 7 5 6 9 12 13 12 11 9 8 9 9 8 8 8 7 7 7 8 7 6 5
18 19 20 19 19 20 20 16 15 15 14 13 12 11 12 13 13 12 12 12 13 13 13 13 13 13 13 12 12 11 9 8 9 8 9 10 12 13 11 10 10 8 8 9 9 9 8 7 8 7 7 8 8 8 9 10 10 10 8 7 7 7 7 7 6 3 3 7 11 13 13 11 10 10 11 10 9 9 9 8 8 8 9 8 8
22 22 21 21 21 20 18 15 14 15 15 14 12 12 12 12 12 12 12 12 13 13 13 13 13 12 11 10 10 11 10 8 8 8 9 10 11 12 11 10 10 9 9 10 9 9 10 8 7 7 8 9 11 11 12 12 10 9 8 7 7 6 6 6 6 5 2 1 4 9 12 13 13 12 13 12 11 11 10 10 9 9 10 10 10
20 21 22 22 22 20 18 15 15 17 17 15 14 14 13 12 13 12 11 11 11 11 11 11 11 11 9 9 10 11 10 9 7 7 7 10 11 10 9 8 9 9 10 10 10 10 12 11 8 9 12 12 12 12 12 11 9 8 7 6 6 5 5 4 4 5 4 3 2 4 7 10 12 13 14 14 14 13 12 12 11 10 10 11 11
18 21 23 23 22 21 19 17 17 18 17 16 16 16 15 13 12 11 9 9 9 8 7 7 7 8 7 7 9 9 9 8 7 6 7 9 10 9 8 8 8 9 10 10 10 11 14 14 10 10 13 13 11 11 10 9 8 7 6 5 5 5 4 3 3 3 3 3 2 3 5 6 7 9 11 12 14 14 14 14 13 13 13 13 13
17 21 25 25 24 23 21 19 19 19 18 18 17 17 16 14 12 10 9 8 7 6 5 4 4 5 6 6 7 6 6 6 6 7 8 7 6 6 6 7 9 10 9 10 11 11 13 14 12 10 12 13 12 10 9 9 7 6 5 4 4 5 5 3 2 2 3 3 3 3 4 5 5 7 7 7 9 10 11 11 12 12 13 14 15
20 24 27 27 25 23 22 22 22 21 20 19 18 18 17 15 13 12 11 10 9 8 7 7 6 6 6 6 6 6 7 7 8 8 7 5 4 3 2 4 7 9 9 10 10 11 12 14 13 11 11 12 11 10 10 8 5 4 4 2 3 5 6 6 4 1 1 2 3 3 3 3 5 6 6 5 4 5 6 7 8 9 10 11 14
24 26 28 27 25 23 24 25 25 23 21 19 18 18 17 15 14 13 13 12 11 9 8 9 9 8 8 7 7 7 7 7 7 7 6 6 6 5 4 3 5 7 9 10 10 11 12 13 13 12 11 11 10 9 9 6 5 6 4 2 1 2 3 5 6 4 2 2 2 3 4 4 4 5 5 5 4 4 5 6 6 7 8 9 11
24 26 28 28 27 26 27 27 26 24 21 19 18 18 17 16 14 15 14 13 11 10 9 10 9 9 8 7 6 5 6 6 5 6 7 7 7 6 5 4 4 5 6 7 9 11 13 14 13 12 11 11 9 7 7 5 6 6 3 2 1 2 1 2 4 5 4 4 4 4 4 4 4 4 5 5 4 5 5 7 8 9 9 10 11
25 28 30 30 30 29 28 27 25 23 21 20 19 19 19 18 17 16 15 14 14 12 11 11 9 9 8 6 5 4 5 6 5 5 6 8 7 5 5 5 4 4 4 5 7 10 12 12 11 11 10 10 9 7 7 5 6 5 3 3 2 1 1 1 2 3 4 5 5 5 4 3 3 3 2 2 3 4 3 4 5 7 8 10 10
27 30 32 32 31 30 28 27 25 23 21 19 19 19 19 19 19 19 18 18 18 15 13 11 10 8 8 7 5 5 6 6 6 5 5 5 5 4 5 6 6 6 5 5 7 8 8 9 8 8 7 7 7 7 7 7 6 5 3 4 2 1 3 2 1 1 2 3 4 5 5 4 3 2 1 0 2 2 2 3 4 5 7 7 7
27 30 31 32 31 30 30 29 26 24 22 20 18 18 18 19 20 20 19 18 17 15 13 11 10 8 8 8 7 7 6 6 6 6 6 5 4 4 6 7 7 8 7 7 8 7 7 7 6 5 5 5 5 6 8 8 7 6 3 4 4 5 5 3 3 1 1 1 2 3 3 1 0 1 2 2 3 3 4 5 6 7 8 7 7
28 29 30 32 32 32 32 30 28 25 23 20 18 18 19 20 21 19 17 16 14 13 12 11 11 10 10 9 9 8 7 6 6 6 7 7 5 5 6 8 9 9 8 8 8 7 6 5 5 5 4 3 2 3 6 8 8 7 6 4 4 4 3 3 3 2 2 1 2 2 2 3 4 5 5 3 3 5 7 7 8 8 7 8 10
28 30 31 32 32 33 32 30 27 24 22 20 18 19 20 21 21 20 17 15 12 11 11 11 10 10 10 10 9 8 8 7 6 6 7 7 6 6 6 9 10 8 7 6 7 7 7 6 6 5 4 4 3 2 4 7 7 7 8 6 3 4 4 4 4 3 3 2 1 2 3 5 8 11 11 5 3 4 5 5 6 6 6 7 8
28 30 30 31 32 31 28 24 20 18 17 17 18 20 22 23 23 22 19 16 14 12 12 10 9 9 9 9 9 8 8 8 7 8 9 8 7 7 7 8 7 5 4 3 4 5 6 7 8 7 7 7 6 6 6 5 5 5 7 7 5 6 5 3 4 4 4 4 3 0 2 4 5 10 14 13 11 10 8 9 10 10 12 11 10
25 26 27 29 27 22 19 16 14 15 17 18 20 23 25 26 25 23 21 19 18 16 15 12 11 10 9 8 8 8 8 9 10 11 11 10 9 9 8 7 6 4 3 2 1 3 4 6 7 8 8 8 8 8 8 8 7 7 6 5 6 6 4 4 4 3 2 3 3 1 2 3 2 6 13 16 18 19 18 18 18 17 17 17 17
Wind_Direction
163 163 157 160 163 157 158 158 155 155 151 145 141 135 130 127 126 124 121 119 118 119 119 120 120 119 118 118 117 115 115 114 113 112 110 108 106 105 104 99 95 100 104 105 108 111 113 114 113 114 114 113 114 112 112 114 114 114 112 111 112 111 106 105 106 101 99 98 97 95 92 91 89 89 91 90 89 88 89 89 88 88 84 79 77
156 160 159 163 167 160 160 160 157 156 151 146 143 137 132 128 126 125 124 121 121 121 121 122 122 121 120 118 117 115 114 113 112 110 109 108 109 108 109 104 98 103 108 108 109 111 113 114 115 116 115 115 115 114 114 115 116 116 113 113 113 111 106 105 107 103 100 102 99 96 92 90 92 92 92 91 91 90 90 89 87 90 87 80 77
150 153 159 163 166 160 160 161 159 157 152 149 145 140 133 128 127 127 127 125 124 124 125 124 124 123 122 121 118 117 114 113 112 110 111 110 111 112 114 109 102 104 108 109 109 112 114 114 115 115 117 116 115 116 116 116 116 115 114 113 110 106 104 104 106 104 102 104 103 102 99 96 95 93 92 91 91 90 89 89 86 86 84 82 79
145 145 153 157 160 159 160 161 160 157 153 151 146 140 135 130 129 130 130 129 128 127 128 126 126 125 124 123 121 119 116 114 114 112 114 114 116 116 117 113 107 104 106 107 108 109 109 111 112 112 114 115 115 117 118 120 117 115 115 112 107 104 102 103 103 101 100 102 104 105 105 100 96 94 94 92 92 91 89 88 86 84 83 82 81
146 147 149 150 157 158 159 161 160 158 154 152 147 142 138 135 131 132 132 131 131 129 129 129 128 127 125 125 123 122 118 116 116 115 117 118 119 119 118 115 109 105 105 107 109 110 108 109 110 112 115 115 117 117 119 120 116 116 116 111 106 103 98 98 98 96 96 97 98 98 100 101 100 98 97 97 94 92 91 89 86 84 82 80 79
154 157 154 151 158 161 161 160 159 158 157 154 149 145 141 137 133 132 132 131 131 131 130 131 130 129 127 125 124 124 122 120 118 117 117 118 119 119 117 114 109 105 105 109 116 117 116 115 106 109 117 118 119 119 120 121 118 118 118 113 109 103 98 96 94 93 93 96 96 96 101 104 102 98 98 100 95 95 94 92 89 86 83 80 77
155 158 154 152 157 163 162 158 159 161 160 157 151 147 144 139 135 133 133 133 132 133 132 132 131 129 127 124 124 124 124 124 122 119 117 117 116 116 115 113 111 109 111 116 121 119 118 117 105 104 116 122 122 123 124 124 123 122 121 121 118 110 101 97 95 92 91 96 96 96 102 103 100 99 102 99 95 99 98 93 93 89 85 81 79
155 155 150 150 154 159 160 158 160 163 162 159 154 149 146 141 137 136 135 134 132 133 133 133 131 129 127 125 125 125 128 127 126 124 121 121 119 117 117 117 116 116 122 123 119 114 110 109 104 101 112 124 128 128 129 128 128 127 127 129 132 129 115 103 104 100 94 97 97 97 102 106 107 106 104 101 98 99 99 96 94 93 89 85 82
154 151 148 147 149 154 159 159 159 161 164 161 157 152 149 145 141 139 137 135 134 134 134 133 131 130 129 129 129 129 131 131 131 131 130 130 128 128 129 132 131 129 133 129 119 114 112 111 110 106 109 124 132 132 131 131 131 132 132 135 140 142 136 120 120 118 108 103 100 100 104 111 116 115 113 110 105 99 102 101 95 94 92 88 84
152 149 148 148 148 152 157 158 158 159 163 163 160 156 152 149 146 143 141 138 137 138 137 135 132 130 130 131 132 133 134 135 136 136 137 137 136 137 138 141 140 138 138 130 122 121 121 117 115 113 117 126 131 132 131 133 134 136 136 140 144 146 147 142 145 139 124 115 108 105 107 112 117 118 116 110 106 100 100 101 96 94 92 87 82
145 145 144 148 150 151 155 156 157 158 162 164 162 159 156 154 151 148 145 142 141 142 141 140 136 133 133 132 132 133 134 135 137 139 140 141 141 143 143 144 143 143 143 136 135 136 134 121 110 111 119 130 134 132 130 134 139 140 138 141 141 144 159 161 163 154 134 128 118 111 112 115 116 114 110 107 108 105 101 102 101 97 95 89 85
139 141 141 147 149 150 153 154 156 157 160 163 164 163 161 158 156 153 148 146 145 145 144 142 139 137 135 133 132 132 134 135 137 139 140 140 141 145 145 147 146 147 151 148 148 147 142 125 113 114 116 129 141 140 136 139 144 145 140 133 125 134 159 161 165 157 138 135 127 117 120 119 116 114 111 110 111 110 108 108 106 102 99 94 92
135 138 140 144 147 150 151 152 155 157 160 162 165 166 165 163 159 156 151 149 147 147 146 145 142 140 139 136 135 134 134 135 135 137 138 137 137 143 146 148 150 151 157 157 157 155 155 140 125 125 119 128 142 148 147 148 150 148 139 124 115 130 147 147 157 154 140 140 134 124 126 123 121 119 115 115 114 112 111 110 109 106 102 98 98
133 137 138 139 140 143 146 154 155 157 162 163 166 168 169 167 162 158 153 151 150 149 148 147 146 145 144 139 137 135 135 136 136 137 136 136 136 141 147 148 151 154 159 161 166 172 165 137 129 129 123 125 138 150 152 153 154 147 134 117 112 126 133 136 147 148 142 142 136 130 131 128 127 123 118 120 119 117 115 113 111 109 105 102 100
128 130 134 134 133 136 148 159 155 157 164 166 167 170 171 169 165 160 155 154 152 151 150 151 152 150 146 141 138 136 136 137 138 140 138 138 139 141 144 146 148 150 153 156 160 161 144 132 130 125 118 115 125 145 153 154 152 144 131 112 113 131 135 138 143 144 143 141 136 133 132 131 129 125 123 121 120 119 119 117 116 114 112 109 104
132 136 138 137 138 143 156 161 157 159 165 168 169 169 171 171 166 162 157 156 154 153 152 154 156 151 146 141 138 137 136 138 139 142 141 141 142 143 142 140 141 142 145 144 140 135 129 128 128 122 117 108 106 127 147 153 149 141 130 106 114 141 146 146 146 144 144 140 134 132 129 128 127 129 129 126 124 122 121 121 119 116 116 113 108
144 149 146 144 149 153 160 162 160 162 166 168 169 169 171 172 167 162 159 157 155 154 155 158 159 153 147 142 139 138 138 138 138 140 141 142 143 144 143 140 137 137 140 140 133 123 122 123 124 125 119 104 92 104 132 147 144 137 130 100 105 147 156 154 152 148 144 138 131 128 125 122 126 134 139 139 132 125 125 125 122 121 120 115 110
146 151 149 150 157 160 163 161 163 165 167 169 170 172 172 171 167 164 161 158 157 156 158 160 160 155 150 146 143 142 140 138 135 137 141 142 144 146 144 141 138 138 139 138 132 122 119 120 125 131 127 107 90 92 117 137 136 133 130 101 93 141 160 160 157 153 146 139 132 130 126 123 126 134 146 150 139 128 127 128 125 122 118 115 114
145 153 153 156 160 163 166 164 169 168 168 171 172 174 174 172 168 165 162 159 159 158 160 163 162 159 154 151 148 146 143 140 136 135 140 144 146 147 145 140 140 141 141 138 133 127 120 120 125 137 141 128 103 93 110 130 130 131 130 103 84 125 159 163 161 158 151 142 137 134 129 132 134 136 151 153 142 134 132 132 129 124 121 122 125
148 157 157 161 163 166 170 170 171 168 170 174 174 176 175 172 168 165 162 159 160 161 163 165 165 162 159 156 153 153 149 147 145 141 141 145 146 146 147 142 143 143 143 142 137 135 131 125 122 133 146 145 129 107 111 125 123 131 129 98 74 114 155 165 166 163 155 147 142 137 133 136 139 142 156 158 151 146 140 137 133 132 130 131 130
153 160 161 164 165 169 172 171 171 169 172 174 174 175 172 171 167 163 161 160 162 164 166 167 168 168 167 166 165 167 162 159 155 150 144 144 145 144 146 145 146 144 144 147 144 148 146 138 129 126 136 140 140 122 118 125 121 131 129 93 65 112 150 165 169 167 160 155 147 140 142 143 151 155 166 167 161 160 149 141 136 135 133 132 130
158 160 163 167 168 170 172 173 174 173 175 173 172 171 170 172 167 164 163 164 166 168 171 172 176 177 178 178 178 181 176 171 165 159 152 145 146 147 150 151 152 150 149 150 149 160 162 154 146 137 142 146 148 135 126 130 124 130 129 97 66 108 148 163 169 170 164 159 151 145 150 157 164 168 177 176 170 168 154 143 141 140 138 139 136
164 162 166 171 171 170 172 177 177 176 178 173 171 170 172 173 168 167 167 167 170 173 177 178 182 183 183 184 183 185 183 179 173 169 161 152 153 153 157 159 161 160 156 158 158 168 175 173 169 166 177 185 176 156 136 136 130 131 129 106 75 101 147 163 169 173 168 159 153 149 157 167 171 180 185 177 175 172 154 147 147 144 144 146 144
171 169 171 175 176 175 177 181 180 179 180 176 174 174 174 174 172 171 169 170 174 178 182 185 187 187 187 188 186 185 185 181 175 177 177 168 164 163 168 169 170 170 168 176 177 180 187 187 192 194 196 207 208 186 151 146 138 136 134 115 89 99 142 163 171 175 172 162 157 153 159 172 173 182 187 177 179 176 157 154 154 151 154 151 153
173 174 177 179 182 183 182 183 183 181 181 179 177 176 174 176 177 175 174 175 179 181 186 192 192 194 193 191 190 188 186 182 178 183 188 184 176 174 177 179 180 180 182 193 197 197 195 192 199 208 207 211 218 203 159 150 145 140 139 123 105 108 139 164 176 182 178 166 161 155 159 179 180 182 188 184 185 178 163 162 161 160 164 156 158
177 180 182 182 185 187 187 185 185 183 182 181 178 177 177 179 181 179 180 182 185 185 189 195 196 200 199 193 191 190 190 189 186 189 196 201 196 192 189 187 192 194 196 202 208 209 203 199 201 211 212 203 200 192 153 146 148 145 147 134 116 119 145 169 183 189 185 174 168 158 160 186 188 184 190 192 192 182 170 171 172 168 171 163 162
183 185 184 184 186 188 189 187 186 184 183 184 182 181 181 183 185 185 187 188 190 192 195 198 198 203 204 200 197 195 196 198 197 197 206 214 214 212 205 200 205 209 217 216 215 213 203 209 209 207 202 187 182 177 140 129 149 155 160 146 132 138 156 173 184 192 189 180 174 166 168 187 194 192 190 191 193 185 178 178 180 179 180 173 167
186 187 187 187 186 188 189 187 186 186 185 187 188 188 188 189 190 191 193 194 196 199 203 204 202 206 210 209 208 205 202 204 208 211 218 225 223 223 220 219 220 221 231 227 218 216 212 211 205 201 192 180 180 175 138 117 140 157 152 125 146 179 179 175 182 191 188 182 180 172 170 182 194 197 192 190 191 186 185 185 184 189 191 183 176
189 189 190 188 184 185 186 186 188 189 189 190 193 194 193 195 198 200 200 200 203 206 210 212 211 213 216 216 216 216 211 209 217 225 230 231 229 230 233 231 230 231 235 227 217 218 223 223 213 207 192 181 182 174 148 132 136 147 136 93 26 205 198 186 186 192 189 188 189 177 173 183 193 197 196 197 193 188 191 191 187 191 196 192 190
193 190 191 188 181 181 185 188 192 192 192 193 195 197 198 201 204 207 207 207 209 212 216 218 218 221 224 223 222 223 221 216 220 234 238 238 236 236 238 237 239 240 236 228 223 231 242 252 251 236 209 192 186 178 166 154 148 159 172 259 311 209 212 207 195 195 194 195 195 184 181 187 195 200 208 212 195 194 203 199 191 193 201 198 196
194 192 191 186 178 180 185 189 193 193 193 193 195 197 201 204 207 209 210 213 213 215 219 221 223 227 231 231 227 226 226 222 219 230 241 243 240 238 241 240 245 249 246 244 247 253 255 258 262 260 248 216 201 198 198 194 193 252 254 255 263 205 204 216 205 201 201 202 199 195 193 192 202 210 219 221 195 197 213 209 193 196 205 204 197
197 194 190 183 177 180 184 188 192 194 194 194 196 200 204 207 209 210 211 215 216 217 221 225 230 233 235 234 234 234 231 227 224 225 233 240 237 238 245 245 249 255 256 256 256 257 256 259 263 265 262 243 231 227 227 234 252 283 280 259 252 219 191 203 207 206 206 209 209 206 204 201 208 218 229 232 203 202 217 214 202 206 207 205 203
198 195 188 182 177 180 186 190 191 193 195 197 202 206 209 211 213 213 214 217 219 222 226 231 237 239 237 236 240 243 238 232 228 221 222 231 233 235 243 246 250 256 257 254 252 254 258 261 264 268 259 244 241 241 242 254 265 280 273 234 226 201 177 194 209 213 213 218 221 216 212 210 212 219 229 236 224 215 218 217 220 233 214 205 207
196 195 190 181 178 184 189 190 191 194 197 200 206 208 211 213 215 217 218 222 225 228 232 236 240 242 241 240 241 241 237 231 225 218 217 225 229 228 234 243 251 256 256 253 254 256 258 258 262 272 259 239 239 243 250 254 245 218 184 159 164 150 152 187 210 221 224 226 230 230 222 217 220 223 226 231 238 235 228 223 229 238 225 210 207
190 192 195 184 180 189 194 192 191 193 195 197 202 206 211 213 214 218 221 226 230 232 236 239 242 245 247 245 241 237 232 226 219 216 215 217 222 223 225 236 248 254 252 249 254 252 254 260 265 271 264 249 245 246 249 231 192 169 154 139 135 129 130 159 198 220 228 230 232 234 232 228 231 237 237 232 237 241 240 238 240 245 239 230 215
189 189 194 191 183 192 199 195 189 189 194 196 200 206 210 211 213 218 223 228 232 234 238 242 244 245 248 246 239 234 230 222 218 222 225 220 218 219 221 231 243 250 248 245 246 242 248 268 272 271 265 250 240 233 221 195 175 158 143 135 130 128 129 133 158 203 224 231 233 234 234 234 239 248 249 242 240 239 239 242 245 253 255 249 244
192 194 193 194 188 191 199 194 184 186 193 195 199 205 209 211 213 216 224 230 232 236 241 245 244 242 244 242 235 235 232 220 219 225 235 234 221 219 222 230 240 246 247 245 245 236 235 259 265 254 246 227 212 198 183 175 168 156 142 129 120 121 127 128 137 157 208 227 230 233 235 236 239 247 252 251 249 246 242 241 242 250 258 258 257
198 202 200 196 191 192 195 192 186 189 194 193 196 204 207 207 210 214 222 229 231 235 241 244 244 241 241 238 232 237 233 219 218 221 234 241 227 223 228 233 241 249 253 254 254 237 221 234 237 207 196 191 186 177 170 166 161 156 145 126 110 107 110 118 132 135 127 176 218 230 235 241 246 249 253 254 254 254 251 248 246 248 254 256 258
204 207 207 202 196 194 192 192 192 193 196 196 198 202 199 196 201 208 217 224 228 233 238 240 241 240 238 232 226 232 231 218 217 219 232 240 231 228 237 242 250 257 259 256 252 234 213 214 213 187 175 170 169 167 164 163 159 155 146 128 110 102 106 117 129 140 148 145 175 221 228 236 249 253 252 254 256 258 258 257 256 257 258 258 259
206 206 205 202 198 194 191 193 196 197 197 198 198 192 183 183 190 194 200 211 220 225 229 233 233 229 224 221 221 229 229 214 209 205 211 229 231 231 240 246 254 259 257 248 239 228 212 207 205 190 178 170 167 168 169 168 164 157 143 130 113 103 108 124 140 162 177 181 193 218 224 226 241 253 250 250 252 256 260 261 262 264 266 266 266
197 199 197 196 195 193 191 193 195 196 193 191 189 182 177 177 176 175 175 180 187 186 183 189 200 202 200 203 205 210 207 191 184 187 191 207 216 221 235 242 249 251 248 243 235 225 212 206 203 191 178 173 170 173 177 174 171 165 153 140 115 103 99 102 140 214 215 224 223 202 221 228 225 237 247 247 247 250 254 256 259 263 265 266 267
182 187 187 187 189 189 189 188 189 189 187 186 183 180 180 179 173 167 162 160 161 155 143 137 134 139 145 158 167 163 164 161 156 164 170 163 150 149 184 222 237 239 232 228 225 217 209 205 203 192 177 173 173 174 178 177 173 167 158 137 94 97 99 90 78 72 176 200 210 188 188 198 200 214 230 240 246 245 244 245 248 254 259 264 266
177 178 179 179 180 181 181 179 180 183 183 184 183 179 178 180 176 166 161 158 155 150 141 135 131 133 132 136 145 143 148 155 152 157 158 140 119 109 123 176 208 214 216 215 209 207 208 205 203 201 185 170 167 172 181 184 168 149 117 66 52 83 87 79 76 76 92 122 154 184 185 178 172 179 197 212 227 234 241 247 250 256 261 262 266
174 173 172 173 173 173 174 174 177 180 181 181 180 177 175 176 175 169 167 162 158 156 148 143 143 146 145 146 152 155 162 162 150 152 154 146 134 119 127 159 179 190 206 212 202 201 207 207 206 209 198 175 164 167 179 180 164 152 109 64 48 64 63 24 65 86 103 120 132 158 178 183 172 165 180 197 216 231 242 252 258 262 261 263 271
176 174 172 172 172 173 174 176 178 179 180 180 180 178 175 173 169 162 159 154 154 157 153 150 153 155 155 159 164 179 185 168 148 147 151 150 143 133 143 149 141 149 174 202 202 200 207 209 208 211 207 193 181 172 175 175 166 162 137 120 81 54 206 300 38 81 108 130 139 143 151 158 152 147 156 193 224 237 250 262 263 261 260 265 274
180 176 175 176 176 177 179 179 178 178 179 180 183 181 180 179 174 166 160 153 151 155 156 154 157 158 153 152 149 159 169 159 153 155 159 162 156 156 158 140 125 131 146 172 184 188 194 197 199 205 210 209 199 183 178 177 172 167 135 123 112 135 166 138 95 46 52 98 127 137 140 137 130 122 86 10 230 234 294 311 301 299 294 282 275
181 178 178 178 179 181 182 181 178 177 178 180 184 186 187 189 187 183 179 171 163 160 157 153 156 155 146 144 143 144 150 154 158 163 168 172 172 176 165 143 132 135 137 144 151 157 168 176 183 190 199 208 206 194 187 182 179 176 154 129 114 109 117 122 134 135 46 49 61 105 130 141 211 315 320 296 269 264 287 301 300 313 322 317 311
181 179 179 179 182 183 182 180 178 178 180 182 185 191 193 192 191 191 189 186 181 168 157 151 150 150 145 142 142 141 144 153 160 168 171 165 159 168 166 154 149 146 143 137 130 126 132 151 166 172 180 185 185 202 196 188 185 186 178 154 116 108 110 117 131 130 134 168 348 44 72 64 61 42 21 338 286 272 274 288 298 312 330 331 333
183 182 181 180 182 183 181 179 178 179 181 183 186 191 194 192 191 191 186 182 182 173 163 156 151 152 149 143 142 141 141 147 158 173 180 170 161 163 162 160 157 148 143 131 115 111 107 110 123 134 141 143 134 130 171 180 186 193 189 174 133 119 116 111 124 117 104 113 266 319 19 54 65 54 47 37 342 307 286 293 313 335 355 348 342
187 185 183 182 183 183 179 172 171 174 178 183 187 189 192 192 191 189 182 175 173 171 167 167 169 171 165 155 150 144 139 139 149 166 173 167 158 155 152 154 156 148 136 124 111 111 105 103 107 112 119 123 121 117 120 134 155 175 186 185 157 129 115 108 124 121 97 90 108 173 20 48 52 50 60 65 61 64 71 71 65 59 55 51 47
190 188 186 185 182 172 158 149 158 174 182 188 190 191 191 191 191 190 183 174 172 171 170 177 188 192 187 177 166 157 148 141 143 151 155 153 149 146 146 149 156 162 156 153 137 108 101 104 108 110 111 109 108 111 108 108 117 123 137 164 154 132 113 105 112 119 110 90 99 108 25 52 60 62 74 75 72 76 78 73 67 62 60 58 57